Pope Field Airport, NC

5:27 AM EDT on April 24, 2018 (GMT -0400)
Pope Field Airport

Weather History for KPOB - April, 2013

Change the Weather History Date:

Friday, April 5, 2013

  Actual Average Record
Temperature  
Mean Temperature 52 °F -  
Max Temperature 62 °F 69 °F 86 °F (1986)
Min Temperature 41 °F 47 °F 31 °F (2015)
Degree Days  
Heating Degree Days 14    
Growing Degree Days 2 (Base 50)    
Moisture  
Dew Point 42 °F    
Average Humidity 86    
Maximum Humidity 100    
Minimum Humidity 52    
Precipitation  
Precipitation 0.01 in - - ()
Sea Level Pressure  
Sea Level Pressure 29.93 in    
Wind  
Wind Speed 8 mph (North)    
Max Wind Speed 12 mph    
Max Gust Speed 17 mph    
Visibility 10 miles    
Events      
Averages and records for this station are not official NWS values.
T = Trace of Precipitation, MM = Missing Value Source: NWS Daily Summary

Daily Weather History Graph

Daily Weather History Graph

Search for Another Location

Airport or City:

Astronomy

Apr. 05, 2013 Rise Set
Actual Time 6:56 AM EDT 7:40 PM EDT
Civil Twilight 6:31 AM EDT 8:06 PM EDT
Nautical Twilight 6:01 AM EDT 8:36 PM EDT
Astronomical Twilight 5:29 AM EDT 9:08 PM EDT
Moon 3:52 AM EDT (4/5) 3:12 PM EDT (4/5)
Length of Visible Light 13h 35m
Length of Day
12h 43m
Waning Crescent, 24% of the Moon is Illuminated
Apr 5
Waning Crescent
Apr 10
New
Apr 18
First Quarter
Apr 25
Full
May 2
Last Quarter

Hourly Weather History & Observations

Time (EDT) Temp. Windchill Dew Point Humidity Pressure Visibility Wind Dir Wind Speed Gust Speed Precip Events Conditions
12:08 AM 41.0 °F 34.3 °F 41.0 °F 100% 29.88 in 10.0 mi NNE 11.5 mph - N/A   Overcast
12:20 AM 41.0 °F 34.7 °F 41.0 °F 100% 29.88 in 10.0 mi North 10.4 mph - N/A   Light Drizzle
12:25 AM 41.0 °F 35.2 °F 41.0 °F 100% 29.88 in 10.0 mi North 9.2 mph - N/A   Overcast
12:58 AM 41.5 °F 36.4 °F 40.3 °F 95% 29.91 in 10.0 mi NNW 8.1 mph - 0.01 in   Light Drizzle
1:14 AM 41.0 °F 35.8 °F 41.0 °F 100% 29.88 in 9.0 mi North 8.1 mph - N/A   Overcast
1:58 AM 41.4 °F 36.2 °F 40.3 °F 96% 29.89 in 9.0 mi North 8.1 mph - 0.00 in   Overcast
2:43 AM 41.0 °F 34.7 °F 41.0 °F 100% 29.88 in 10.0 mi NNW 10.4 mph 17.3 mph N/A   Overcast
2:58 AM 41.2 °F 35.5 °F 40.1 °F 96% 29.89 in 10.0 mi NNW 9.2 mph - N/A   Overcast
3:18 AM 41.0 °F 35.8 °F 39.2 °F 93% 29.90 in 10.0 mi NNW 8.1 mph - N/A   Overcast
3:38 AM 41.0 °F 36.4 °F 39.2 °F 93% 29.90 in 10.0 mi NNW 6.9 mph - N/A   Overcast
3:58 AM 41.2 °F 35.5 °F 39.9 °F 95% 29.91 in 10.0 mi NNW 9.2 mph - N/A   Overcast
4:18 AM 41.0 °F 35.8 °F 39.2 °F 93% 29.89 in 10.0 mi NNW 8.1 mph - N/A   Overcast
4:58 AM 41.4 °F 35.7 °F 40.3 °F 96% 29.91 in 10.0 mi NNW 9.2 mph - N/A   Overcast
5:33 AM 41.0 °F 35.2 °F 39.2 °F 93% 29.88 in 10.0 mi North 9.2 mph - N/A   Overcast
5:58 AM 41.2 °F 36.0 °F 39.9 °F 95% 29.89 in 10.0 mi North 8.1 mph - N/A   Overcast
6:18 AM 41.0 °F 37.1 °F 39.2 °F 93% 29.89 in 10.0 mi NNW 5.8 mph - N/A   Overcast
6:58 AM 41.4 °F 38.4 °F 39.9 °F 95% 29.94 in 10.0 mi NW 4.6 mph - N/A   Overcast
7:28 AM 41.0 °F 36.4 °F 39.2 °F 93% 29.93 in 10.0 mi NNW 6.9 mph - N/A   Overcast
7:58 AM 41.5 °F 37.1 °F 39.9 °F 94% 29.94 in 10.0 mi NNW 6.9 mph - N/A   Overcast
8:53 AM 42.8 °F 39.3 °F 41.0 °F 93% 29.94 in 10.0 mi NNW 5.8 mph - N/A   Overcast
8:58 AM 41.9 °F 38.2 °F 40.1 °F 93% 29.96 in 10.0 mi NNW 5.8 mph - N/A   Overcast
9:28 AM 42.8 °F 39.3 °F 41.0 °F 93% 29.97 in 10.0 mi NNW 5.8 mph - N/A   Overcast
9:58 AM 43.7 °F 39.1 °F 41.0 °F 90% 29.97 in 10.0 mi NNW 8.1 mph - N/A   Overcast
10:58 AM 45.3 °F 39.7 °F 42.1 °F 88% 29.96 in 10.0 mi North 11.5 mph - N/A   Overcast
11:13 AM 46.4 °F 42.9 °F 42.8 °F 87% 29.95 in 10.0 mi Variable 6.9 mph - N/A   Overcast
11:58 AM 50.5 °F - 45.1 °F 82% 29.98 in 10.0 mi NNE 6.9 mph - N/A   Overcast
12:08 PM 50.0 °F - 44.6 °F 82% 29.97 in 10.0 mi NNE 8.1 mph - N/A   Overcast
12:53 PM 53.6 °F - 46.4 °F 77% 29.95 in 10.0 mi NE 10.4 mph - N/A   Mostly Cloudy
12:58 PM 53.8 °F - 45.9 °F 75% 29.96 in 10.0 mi NNE 10.4 mph - N/A   Mostly Cloudy
1:58 PM 55.4 °F - 46.4 °F 72% 29.94 in 10.0 mi NE 9.2 mph - N/A   Overcast
2:43 PM 57.2 °F - 46.4 °F 67% 29.92 in 10.0 mi NNE 6.9 mph - N/A   Scattered Clouds
2:58 PM 58.1 °F - 45.1 °F 62% 29.93 in 10.0 mi NE 8.1 mph - N/A   Partly Cloudy
3:58 PM 61.2 °F - 44.8 °F 55% 29.91 in 10.0 mi Variable 5.8 mph - N/A   Mostly Cloudy
4:58 PM 59.7 °F - 44.1 °F 56% 29.91 in 10.0 mi Variable 1.2 mph - N/A   Mostly Cloudy
5:58 PM 62.1 °F - 44.4 °F 52% 29.92 in 10.0 mi North 2.3 mph - N/A   Scattered Clouds
6:58 PM 61.7 °F - 44.8 °F 54% 29.93 in 10.0 mi Variable 2.3 mph - N/A   Clear
7:58 PM 57.0 °F - 46.4 °F 68% 29.95 in 10.0 mi SW 2.3 mph - N/A   Clear
8:58 PM 52.9 °F - 46.8 °F 80% 29.98 in 10.0 mi Calm Calm - N/A   Clear
9:58 PM 48.9 °F - 46.4 °F 91% 30.02 in 10.0 mi Calm Calm - N/A   Clear
10:58 PM 48.2 °F - 45.9 °F 92% 30.03 in 10.0 mi WSW 2.3 mph - N/A   Clear
11:58 PM 45.9 °F - 43.7 °F 92% 30.03 in 10.0 mi Calm Calm - N/A   Clear